TIROS 2 DEB *, 5922

Orbit data source: Space-Track

TIROS 2 DEB *, 5922 is space debris in LEO originally from a launch on Wed, 23 Nov 1960 UTC launched from the Air Force Eastern Test Range (AFETR). Debris objects in space refer to the collection of defunct objects orbiting the Earth. Examples of debris include non-operational satellites, rocket bodies, and fragments generated from explosions, collisions, or faulty payload assembly.

Loading next visibility...
Identifier
5922, 1960-016E
Orbit
LEO
Last TLE update
1 day ago
Origin
Manufacturer
Unknown
Mission
Spacecraft
Bus & Motor
Unknown
Mass
Unknown
Launch date (UTC)
1960-11-23 (64 years ago)
Launch vehicle
Unknown
Launch site
Air Force Eastern Test Range (AFETR)
Object type
Payload
Rocket body
Debris
Shape & HBR
Unknown
Radar Cross Section
Small (<0.1 m²)

Expand to show TLE details & history

TLE from 1 day ago
0 TIROS 2 DEB *
1  5922U 60016E   25127.94987619 -.00000055  00000-0  84089-4 0  9995
2  5922  47.0332   7.5633 0040419 198.0668 184.8919 13.70009020696192
Epoch: 2025-05-07T22:47Z
Definitive object data (Epoch: 2025-05-07T22:47:49.302Z)
Latitude
16.58917°
Longitude
175.60498°
Altitude
1,028.826 km
Speed
7.325 km/s
True Right ascension
01h 34m 21s
True Declination
16° 29' 55"
Sunlit
Object was in daylight at TLE epoch
Visualization TLE readout
Latitude
29.65127°
Longitude
-57.70933°
Altitude
988.193 km
Speed
7.368 km/s
Apparent Right ascension
07h 10m 24s
Apparent Declination
-3° 38' 59"
Sunlit
Object is in daylight
Visualization observer readout
Local Sidereal Time
15:00:44
Azimuth
285.642° WNW
Elevation
-23.281°
Doppler factor
1
Orbital elements
Apogee altitude
1,030.543 km
Perigee altitude
970.894 km
Semi-major axis
7,378.855 km
Eccentricity
0.0040419
Inclination
47.0332°
RAAN
7.5633°
Arg. of periapsis
198.0668°
True anomaly
184.8526°
Mean anomaly
184.8919°
Eccentric anomaly
184.87223°
Mean motion
3.4242 °/min
BSTAR
0.000084089
Orbital period
105.13 mins
Loading maneuver chart data...
Loading SW <> Apogee altitude chart data...
Loading historical data...
Loading historical data...
Loading historical data...
Loading historical data...
Loading historical data...
Loading historical data...
Loading historical data...
Other satellites on launch #16 in the year 1960 (1960-11-23 UTC)

TIROS 2 DEB * Visibility forecast

Observer location: undefined°, undefined°

Span
Click to sort rows by Start time (UTC) header in descending order
Start Az.
Max El. time (UTC)
Max El. Az.
Max El.
End time (UTC)
End Az.
8 mins2025-05-09 16:49:50.191Z166.245° S2025-05-09 16:53:50.191Z126.319° SE17.756°2025-05-09 16:57:50.191Z89.168° E
12 mins2025-05-09 18:37:50.191Z226.062° WSW2025-05-09 18:42:50.191Z168.025° S42.886°2025-05-09 18:49:50.191Z64.459° ENE
11 mins2025-05-09 20:28:50.191Z272.697° WNW2025-05-09 20:33:50.191Z341.139° N39.008°2025-05-09 20:39:50.191Z61.177° ENE
10 mins2025-05-09 22:20:50.191Z300.838° NW2025-05-09 22:25:50.191Z20.176° NNE36.266°2025-05-09 22:30:50.191Z78.438° E
12 mins2025-05-10 00:10:50.191Z298.411° NW2025-05-10 00:16:50.191Z103.371° ESE44.498°2025-05-10 00:22:50.191Z118.246° SE
8 mins2025-05-10 02:02:50.191Z269.993° W2025-05-10 02:06:50.191Z218.359° SW25.412°2025-05-10 02:10:50.191Z174.171° S
|